Location: Castelbiague
(43.0361°N, 0.9246°E)
Time: 09:23:20
(UTC+00:00)

Okean 1 Rocket - Pass Details

Date: 17 June 2021
Orbit: 607 x 633 km, 82.5° (Epoch: 01 August)

Event Time Altitude Azimuth Distance (km) Brightness Sun altitude
Rises 20:41:51 0° 348° (NNW) 2,884 7.6 -9.8°
Reaches altitude 10° 20:44:05 10° 345° (NNW) 1,978 6.7 -10.1°
Maximum altitude 20:48:25 63° 265° (W) 687 3.5 -10.6°
Drops below altitude 10° 20:52:44 10° 184° (S) 1,976 5.2 -11.2°
Enters shadow 20:53:31 - 183° (S) 2,290 5.6 -11.3°
